Regional Weather Roundup
Issued by NWS Sterling, VA

Home | Current Version | Previous Version | Text Only | Print | Product List | Glossary On
Versions: 1 2 3 4 5 6 7 8 9 10 11 12 13 14 15 16 17 18 19 20 21 22 23 24 25 26 27 28 29 30 31 32 33 34 35 36 37 38 39 40 41 42 43 44 45 46 47 48 49 50
000
ASUS41 KLWX 300010
RWRLWX

REGIONAL WEATHER ROUNDUP
NATIONAL WEATHER SERVICE BALTIMORE MD/WASHINGTON DC
800 PM EDT FRI APR 29 2016

Note: "FAIR" indicates few or no clouds below 12,000 feet
with no significant weather and/or obstructions to visibility.
 TC=TEMPERATURE CELSIUS

 * =Non NWS site. Station does not report precipitation (e.g. rain,
    snow, etc.), thunder, or fog.

DCZ001-MDZ009-015-VAZ040>042-051-053>054-300100-
WASHINGTON METRO

CITY           SKY/WX    TMP DP  RH WIND       PRES   REMARKS
WASHINGTON NAT CLOUDY    53  50  89 NE8       30.06R
DULLES         DRIZZLE   54  49  83 NE7       30.05R
ANDREWS AFB    CLOUDY    51  50  95 NE7       30.04R FOG
FT BELVOIR     CLOUDY    54  50  85 VRB2      30.05R
QUANTICO       CLOUDY    56  50  80 SE5       30.05R
COLLEGE PARK*  CLOUDY    50  48  93 CALM      30.06R
LEESBURG*      CLOUDY    54  52  94 CALM      30.06R
MANASSAS*      CLOUDY    55  52  88 NE5       30.05R
GAITHERSBURG*  CLOUDY    50  46  87 CALM      30.10R

$$

MDZ006>007-011-014-300100-
BALTIMORE METRO

CITY           SKY/WX    TMP DP  RH WIND       PRES   REMARKS
BWI AIRPORT    DRIZZLE   52  49  89 NE5       30.05R
MD SCIENCE CTR   N/A     52  48  86 MISG      30.07R
MARTIN STATE   CLOUDY    54  52  94 E7        30.07R
ANNAPOLIS      CLOUDY    52  50  93 MISG      30.05S FOG
FORT MEADE*    CLOUDY    50  46  87 CALM      30.08R

$$

MDZ012-015-019>023-300100-
MARYLAND EASTERN SHORE

CITY           SKY/WX    TMP DP  RH WIND       PRES   REMARKS
OCEAN CITY     CLOUDY    50  48  93 NE12      30.04R FOG
SALISBURY      CLOUDY    51  49  92 NE9       30.03R
CAMBRIDGE*     CLOUDY    50  48  93 NE6       30.04R
EASTON*        CLOUDY   N/A N/A N/A E7        30.08R HAZE

$$

MDZ017>025-300100-
SOUTHERN MARYLAND

CITY           SKY/WX    TMP DP  RH WIND       PRES   REMARKS
PATUXENT RIVER DRIZZLE   53  50  89 NE5       30.04R FOG
ST INIGOES       N/A    N/A N/A N/A MISG        N/A
LEONARDTOWN*   CLOUDY    52  50  93 NE3       30.05S

$$

MDZ003>005-300100-
NORTH CENTRAL MARYLAND

CITY           SKY/WX    TMP DP  RH WIND       PRES   REMARKS
FREDERICK*     CLOUDY    52  52 100 CALM      30.07R FOG
HAGERSTOWN APT CLOUDY    52  47  83 NW5       30.05R
WESTMINSTER*   CLOUDY    50  46  87 SE3       30.05S FOG

$$

MDZ501>502-300100-
WESTERN MARYLAND

CITY           SKY/WX    TMP DP  RH WIND       PRES   REMARKS
OAKLAND*       CLOUDY    50  46  87 NW5       30.04R
CUMBERLAND*    CLOUDY    54  50  87 N3        30.09R

$$

VAZ025>031-300100-
SHENANDOAH VALLEY

CITY           SKY/WX    TMP DP  RH WIND       PRES   REMARKS
WINCHESTER*    CLOUDY    52  50  93 NE3       30.05R FOG
FRONT ROYAL*   CLOUDY    54  50  87 NE7       30.02R
LURAY*         CLOUDY    55  54  94 N7        30.01R
NEW MARKET*    CLOUDY    54  51  89 N12       30.00R
STAUNTON*      MOCLDY    58  55  87 S3        30.03R
WAYNESBORO*    CLOUDY    53  50  90 MISG      30.01R

$$

WVZ021-048>050-054>055-300100-
EASTERN WEST VIRGINIA PANHANDLE

CITY           SKY/WX    TMP DP  RH WIND       PRES   REMARKS
MARTINSBURG    CLOUDY    51  49  92 CALM      30.06R FOG
PETERSBURG*    CLOUDY    57  52  82 N7        30.04R

$$

VAZ036>039-050-300100-
CENTRAL FOOTHILLS

CITY           SKY/WX    TMP DP  RH WIND       PRES   REMARKS
CHARLOTTESVILL CLOUDY    55  51  86 NE6       30.03R FOG
CULPEPER*      CLOUDY    55  53  91 CALM      30.04S
ORANGE*        CLOUDY    54  54 100 CALM      30.05R FOG
GORDONSVILLE*  CLOUDY    54  54  98 CALM      30.03R
WARRENTON*     CLOUDY    56  48  76 NE3       30.03R

$$

VAZ055>057-300100-
NORTH AND CENTRAL PIEDMONT

CITY           SKY/WX    TMP DP  RH WIND       PRES   REMARKS
FREDERICKSBRG* CLOUDY    56  55  97 NE3       30.03R
STAFFORD*      CLOUDY    55  50  85 NE3       30.07S

$$

NCZ024-NYZ072-PAZ021-071-VAZ022-071-300100-
OTHER REGIONAL OBSERVATIONS

CITY           SKY/WX    TMP DP  RH WIND       PRES   REMARKS
NEW YORK CITY  LGT RAIN  47  40  76 VRB5      30.11S
PHILADELPHIA   CLOUDY    50  42  74 NE6       30.09R
PITTSBURGH     CLOUDY    51  46  83 NW6       30.06R
ROANOKE        FAIR      69  60  73 SE13      29.98R
RICHMOND       CLOUDY    58  53  84 NE7       30.01R
RALEIGH        MOCLDY    71  60  68 SE7       29.96R

$$

ANZ530>537-300100-
MARINE OBSERVATIONS

STATION/POSITION TIME  TEMP    WIND        PRES
                       AIR SEA DIR/SP/G
                 (UTC) (F)     (DEG/KT/KT) (MB)
THOMAS PT LIGHT  0000   52 57   70/  9/ 11 1019.0R
BALT KEY BRIDGE  2300   52                   N/A
COVE POINT       2300   52                   N/A
LEWISETTA        2300   55 60                N/A
SOLOMONS ISLAND  2300   54 60                N/A
PINEY POINT      2300           40/  6/  7   N/A

$$




USA.gov is the U.S. government's official web portal to all federal, state and local government web resources and services.